STARLINK-2755 (48479 NORAD) Tracking and Keplerian Element Data

This shows tracking and keplerian element data for the satellite.

Feedback or suggestion? Click here.




ElementValue
Catalog48479
NameSTARLINK-2755
Epoch Orbit358
Epoch Day210.91668981
Epoch Year2021
RAAN190.3563
Inclination53.0542
Eccentricity0.000132
Argument of Perigee68.7662
Mean Anonmoly285.86
Mean Motion15.0641871
Decay Rate0.00027689
L11 48479U 21040BD 21210.91668981 .00027689 00000-0 18695-2 0 9996
L22 48479 53.0542 190.3563 0001320 68.7662 285.8600 15.06418710 3589

Live tracking and technical data element details for STARLINK-2755 (NORAD 48479). STARLINK-2755 can be tracked NOW for your location showing map with azimuth and elevation plus other details from your city location.

Track the satellite on the map from your city or location and see movement details for azimuth, elevation, latitude, longitude, range, height, and movement on the map or in text.







IsCatalogInMostPopularTable: catalog: 48479, numindb: 25
Update: records affected: 1



GetName: 48479 STARLINK-2755

Hit Count: updated at: Sat, 31 Jul 2021 16:33:18 GMT